• In Österreich
  • Länderverzeichnis
  • Für 7 Tage
  • Wassertemperatur
  • Satellitenkarten
  • Wetterkarte
  • News
  • Widgets
  • user-avatar
    Anmelden

    Stündliche Wetter Bregenz

    Heute, 25 Februar, Sonntag

    Zeit Temperatur Niederschläge Wind Luftdruck Luftfeuchtigkeit
    00:00 -9°C° 0 mm 3 m/S 640 mmHg 90%
    01:00 -10°C° 0 mm 3 m/S 640 mmHg 90%
    02:00 -10°C° 0 mm 3 m/S 640 mmHg 90%
    03:00 -10°C° 0 mm 3 m/S 640 mmHg 90%
    04:00 -12°C° 0 mm 3 m/S 640 mmHg 90%
    05:00 -12°C° 0 mm 3 m/S 640 mmHg 89%
    06:00 -14°C° 0 mm 4 m/S 640 mmHg 89%
    07:00 -14°C° 0 mm 4 m/S 640 mmHg 89%
    08:00 -14°C° 0 mm 4 m/S 640 mmHg 85%
    09:00 -12°C° 0 mm 4 m/S 640 mmHg 82%
    10:00 -12°C° 0 mm 4 m/S 640 mmHg 79%
    11:00 -11°C° 0 mm 4 m/S 640 mmHg 76%
    12:00 -11°C° 0 mm 4 m/S 640 mmHg 73%
    13:00 -11°C° 0 mm 5 m/S 641 mmHg 70%
    14:00 -12°C° 0 mm 5 m/S 640 mmHg 70%
    15:00 -12°C° 0 mm 5 m/S 640 mmHg 70%
    16:00 -11°C° 0 mm 4 m/S 640 mmHg 70%
    17:00 -12°C° 0 mm 4 m/S 640 mmHg 73%
    18:00 -15°C° 0 mm 4 m/S 640 mmHg 77%
    19:00 -16°C° 0 mm 4 m/S 640 mmHg 81%
    20:00 -16°C° 0 mm 3 m/S 640 mmHg 81%
    21:00 -16°C° 0 mm 3 m/S 640 mmHg 82%
    22:00 -17°C° 0 mm 3 m/S 641 mmHg 82%
    23:00 -17°C° 0 mm 3 m/S 640 mmHg 83%

    Morgen, 26 Februar, Montag

    Zeit Temperatur Niederschläge Wind Luftdruck Luftfeuchtigkeit
    00:00 -17°C° 0 mm 3 m/S 640 mmHg 83%
    01:00 -18°C° 0 mm 3 m/S 640 mmHg 84%
    02:00 -18°C° 0 mm 3 m/S 640 mmHg 84%
    03:00 -19°C° 0 mm 3 m/S 640 mmHg 84%
    04:00 -19°C° 0 mm 3 m/S 639 mmHg 84%
    05:00 -19°C° 0 mm 3 m/S 640 mmHg 84%
    06:00 -19°C° 0 mm 3 m/S 640 mmHg 84%
    07:00 -21°C° 0 mm 3 m/S 640 mmHg 84%
    08:00 -19°C° 0 mm 3 m/S 640 mmHg 79%
    09:00 -19°C° 0 mm 4 m/S 640 mmHg 75%
    10:00 -18°C° 0 mm 4 m/S 640 mmHg 71%
    11:00 -17°C° 0 mm 4 m/S 640 mmHg 68%
    12:00 -17°C° 0 mm 4 m/S 640 mmHg 65%
    13:00 -17°C° 0 mm 5 m/S 640 mmHg 63%
    14:00 -17°C° 0 mm 5 m/S 639 mmHg 64%
    15:00 -17°C° 0 mm 5 m/S 639 mmHg 66%
    16:00 -17°C° 0 mm 5 m/S 639 mmHg 67%
    17:00 -17°C° 0 mm 4 m/S 639 mmHg 71%
    18:00 -18°C° 0 mm 4 m/S 639 mmHg 75%
    19:00 -19°C° 0 mm 4 m/S 639 mmHg 79%
    20:00 -19°C° 0 mm 3 m/S 639 mmHg 80%
    21:00 -19°C° 0 mm 3 m/S 639 mmHg 80%
    22:00 -21°C° 0 mm 3 m/S 639 mmHg 81%
    23:00 -21°C° 0 mm 3 m/S 639 mmHg 81%

    übermorgen, 27 Februar, Dienstag

    Zeit Temperatur Niederschläge Wind Luftdruck Luftfeuchtigkeit
    00:00 -21°C° 0 mm 3 m/S 638 mmHg 81%
    01:00 -22°C° 0 mm 3 m/S 638 mmHg 80%
    02:00 -22°C° 0 mm 3 m/S 638 mmHg 79%
    03:00 -20°C° 0 mm 2 m/S 637 mmHg 78%
    04:00 -21°C° 0 mm 2 m/S 637 mmHg 77%
    05:00 -21°C° 0 mm 2 m/S 637 mmHg 76%
    06:00 -21°C° 0 mm 2 m/S 637 mmHg 75%
    07:00 -21°C° 0 mm 2 m/S 637 mmHg 75%
    08:00 -19°C° 0 mm 2 m/S 637 mmHg 69%
    09:00 -18°C° 0 mm 2 m/S 637 mmHg 64%
    10:00 -16°C° 0 mm 2 m/S 638 mmHg 58%
    11:00 -15°C° 0 mm 2 m/S 638 mmHg 57%
    12:00 -15°C° 0 mm 3 m/S 638 mmHg 56%
    13:00 -14°C° 0 mm 3 m/S 638 mmHg 55%
    14:00 -14°C° 0 mm 3 m/S 638 mmHg 57%
    15:00 -14°C° 0 mm 3 m/S 637 mmHg 60%
    16:00 -14°C° 0 mm 3 m/S 637 mmHg 63%
    17:00 -16°C° 0 mm 3 m/S 637 mmHg 70%
    18:00 -16°C° 0 mm 2 m/S 637 mmHg 77%
    19:00 -17°C° 0 mm 2 m/S 637 mmHg 83%
    20:00 -18°C° 0 mm 2 m/S 637 mmHg 82%
    21:00 -18°C° 0 mm 2 m/S 637 mmHg 81%
    22:00 -18°C° 0 mm 2 m/S 638 mmHg 80%
    23:00 -18°C° 0 mm 2 m/S 638 mmHg 79%

    28 Februar, Mittwoch

    Zeit Temperatur Niederschläge Wind Luftdruck Luftfeuchtigkeit
    00:00 -18°C° 0 mm 2 m/S 638 mmHg 78%
    01:00 -19°C° 0 mm 2 m/S 638 mmHg 77%
    02:00 -19°C° 0 mm 2 m/S 638 mmHg 77%
    03:00 -19°C° 0 mm 2 m/S 638 mmHg 77%
    04:00 -19°C° 0 mm 2 m/S 638 mmHg 77%
    05:00 -19°C° 0 mm 2 m/S 638 mmHg 77%
    06:00 -19°C° 0 mm 2 m/S 638 mmHg 77%
    07:00 -19°C° 0 mm 2 m/S 638 mmHg 77%
    08:00 -17°C° 0 mm 2 m/S 639 mmHg 71%
    09:00 -15°C° 0 mm 2 m/S 639 mmHg 64%
    10:00 -13°C° 0 mm 2 m/S 640 mmHg 58%
    11:00 -10°C° 0 mm 2 m/S 640 mmHg 54%
    12:00 -9°C° 0 mm 2 m/S 640 mmHg 50%
    13:00 -7°C° 0 mm 2 m/S 640 mmHg 47%
    14:00 -8°C° 0 mm 3 m/S 640 mmHg 49%
    15:00 -8°C° 0 mm 3 m/S 640 mmHg 50%
    16:00 -8°C° 0 mm 3 m/S 639 mmHg 52%
    17:00 -9°C° 0 mm 3 m/S 639 mmHg 58%
    18:00 -10°C° 0 mm 3 m/S 639 mmHg 64%
    19:00 -12°C° 0 mm 3 m/S 639 mmHg 70%
    20:00 -12°C° 0 mm 3 m/S 639 mmHg 70%
    21:00 -12°C° 0 mm 3 m/S 639 mmHg 70%
    22:00 -13°C° 0 mm 3 m/S 639 mmHg 70%
    23:00 -12°C° 0 mm 3 m/S 639 mmHg 69%

    1 März, Donnerstag

    Zeit Temperatur Niederschläge Wind Luftdruck Luftfeuchtigkeit
    00:00 -12°C° 0 mm 3 m/S 639 mmHg 69%
    01:00 -12°C° 0 mm 3 m/S 639 mmHg 69%
    02:00 -12°C° 0 mm 3 m/S 638 mmHg 70%
    03:00 -12°C° 0 mm 3 m/S 638 mmHg 70%
    04:00 -10°C° 0 mm 3 m/S 638 mmHg 71%
    05:00 -10°C° 0 mm 3 m/S 638 mmHg 72%
    06:00 -10°C° 0 mm 3 m/S 638 mmHg 73%
    07:00 -10°C° 0 mm 3 m/S 637 mmHg 74%
    08:00 -9°C° 0,1 mm 3 m/S 637 mmHg 73%
    09:00 -8°C° 0,1 mm 3 m/S 637 mmHg 73%
    10:00 -6°C° 0,1 mm 3 m/S 637 mmHg 72%
    11:00 -5°C° 0,1 mm 3 m/S 637 mmHg 72%
    12:00 -4°C° 0,1 mm 3 m/S 637 mmHg 73%
    13:00 -2°C° 0,1 mm 3 m/S 637 mmHg 73%
    14:00 -2°C° 0,2 mm 3 m/S 637 mmHg 76%
    15:00 -3°C° 0,2 mm 2 m/S 636 mmHg 78%
    16:00 -3°C° 0,2 mm 2 m/S 636 mmHg 81%
    17:00 -3°C° 0,1 mm 2 m/S 636 mmHg 83%
    18:00 -4°C° 0,1 mm 2 m/S 636 mmHg 84%
    19:00 -4°C° 0,1 mm 2 m/S 636 mmHg 86%
    20:00 -5°C° 0,1 mm 2 m/S 636 mmHg 85%
    21:00 -5°C° 0,1 mm 2 m/S 636 mmHg 85%
    22:00 -5°C° 0,1 mm 2 m/S 636 mmHg 84%
    23:00 -5°C° 0 mm 2 m/S 636 mmHg 84%

    2 März, Freitag

    Zeit Temperatur Niederschläge Wind Luftdruck Luftfeuchtigkeit
    00:00 -5°C° 0 mm 2 m/S 636 mmHg 84%
    01:00 -6°C° 0 mm 2 m/S 635 mmHg 84%
    02:00 -6°C° 0 mm 2 m/S 635 mmHg 83%
    03:00 -6°C° 0 mm 2 m/S 635 mmHg 83%
    04:00 -6°C° 0 mm 2 m/S 635 mmHg 83%
    05:00 -5°C° 0 mm 2 m/S 635 mmHg 83%
    06:00 -5°C° 0 mm 2 m/S 635 mmHg 83%
    07:00 -5°C° 0 mm 2 m/S 635 mmHg 83%
    08:00 -1°C° 0 mm 1 m/S 635 mmHg 82%
    09:00 0°C° 0 mm 1 m/S 636 mmHg 80%
    10:00 +2°C° 0 mm 1 m/S 636 mmHg 79%
    11:00 +3°C° 0,1 mm 1 m/S 636 mmHg 80%
    12:00 +3°C° 0,1 mm 1 m/S 637 mmHg 80%
    13:00 +4°C° 0,1 mm 1 m/S 637 mmHg 80%
    14:00 +4°C° 0,1 mm 1 m/S 637 mmHg 83%
    15:00 +4°C° 0,1 mm 1 m/S 637 mmHg 87%
    16:00 +2°C° 0,1 mm 0 m/S 637 mmHg 90%
    17:00 +3°C° 0,1 mm 1 m/S 637 mmHg 91%
    18:00 +2°C° 0,1 mm 1 m/S 637 mmHg 93%
    19:00 +1°C° 0,1 mm 1 m/S 637 mmHg 94%
    20:00 0°C° 0 mm 1 m/S 637 mmHg 93%
    21:00 0°C° 0 mm 1 m/S 637 mmHg 93%
    22:00 0°C° 0 mm 1 m/S 638 mmHg 92%
    23:00 0°C° 0 mm 1 m/S 638 mmHg 91%
    Mehr zeigen